Regional Weather Roundup
Issued by NWS

Home | Current Version | Previous Version | Text Only | Print | Product List | Glossary Off
Versions: 1 2 3 4 5 6 7 8 9 10 11 12 13 14 15 16 17 18 19 20 21 22 23 24 25 26 27 28 29 30 31 32 33 34 35 36 37 38 39 40 41 42 43 44 45 46 47 48 49 50

000
ASUS43 KFSD 192002
RWRSD

WEATHER ROUNDUP FOR SOUTH DAKOTA
NATIONAL WEATHER SERVICE SIOUX FALLS SD
300 PM CDT THU OCT 19 2017

NOTE: "FAIR" INDICATES FEW OR NO CLOUDS BELOW 12,000 FEET WITH NO
SIGNIFICANT WEATHER AND/OR OBSTRUCTIONS TO VISIBILITY.


SDZ001>005-009-010-012>017-192100-
NORTHWEST AND NORTH CENTRAL SOUTH DAKOTA

CITY           SKY/WX    TMP DP  RH WIND       PRES   REMARKS
BUFFALO          N/A     82  24  12 S8        29.72F
FAITH            N/A     78  20  11 SW5       29.77F
MOBRIDGE       FAIR      73  44  35 SE14      29.75F
$$

SDZ012>016-024>037-041>051-057-063-072>074-192100-
SOUTHWEST AND SOUTH CENTRAL SOUTH DAKOTA

CITY           SKY/WX    TMP DP  RH WIND       PRES   REMARKS
RAPID CTY ARPT FAIR      84  23  10 SE7       29.78F
PIERRE         FAIR      78  35  21 SW6       29.77F
CUSTER         FAIR      70  13  11 W13G21    29.94F
ELLSWORTH AFB  FAIR      83  25  12 SE8       29.78F
PHILIP         FAIR      84  27  12 W18       29.77F
PINE RIDGE     FAIR      81  30  15 S13       29.85F
SPEARFISH      FAIR      77  32  19 NE12      29.82F
WINNER         FAIR      82  45  27 S16G22    29.83F
$$

SDZ004>011-016>023-039-040-192100-
NORTHEAST SOUTH DAKOTA

CITY           SKY/WX    TMP DP  RH WIND       PRES   REMARKS
ABERDEEN       FAIR      73  43  33 S17G25    29.80F
WATERTOWN      FAIR      71  46  40 S20G30    29.85F
BROOKINGS      FAIR      72  48  42 S22G28    29.89F
SISSETON         N/A     76  43  30 S21G29    29.80F
$$

SDZ017-020-022-023-036>040-048>070-192100-
SOUTHEAST SOUTH DAKOTA

CITY           SKY/WX    TMP DP  RH WIND       PRES   REMARKS
SIOUX FALLS    FAIR      74  52  46 S16G22    29.93F
HURON          FAIR      75  42  30 S17G25    29.84F
CHAMBERLAIN    FAIR      80  46  29 S15G22    29.83F
MITCHELL       FAIR      77  45  32 S20G29    29.86F
YANKTON        FAIR      76  50  40 SE15      29.92F
$$

ABBREVIATIONS USED IN REMARKS
   TC - TEMPERATURE IN CELSIUS
  WCI - WIND CHILL INDEX
   HX - HEAT INDEX
  VSB - VISIBILITY





USA.gov is the U.S. government's official web portal to all federal, state and local government web resources and services.